SCP
0 0 0 0 0 0 0 0 0 0 0 0 0 0 0 0 0 0 0 0 0 0 0 0 0 0 0 0 0 0 0 -0 0 0 0 0 0 0 -0 -0 -0 0 0 0 0 0 0 0 0 0 0 0 0 0
0 0 0 0 0 0 0 0 0 0 0 0 0 0 0 0 0 0 0 0 0 0 0 0 0 0 0 0 0 0 0 0 -0 0 -0 0 0 0 0 -0 -0 0 0 0 0 0 0 0 0 0 0 0 0 0
0 0 0 0 0 0 0 0 0 0 0 0 0 0 0 0 0 0 0 0 0 0 0 0 0 0 0 0 0 0 0 0 0 -0 -0 -0 0 0 0 0 0 0 0 0 0 0 0 0 0 0 0 0 0 0
0 0 0 0 0 0 0 0 0 0 0 0 0 0 0 0 0 0 0 0 0 0 0 0 0 0 0 0 0 0 0 0 0 -0 0 0 0 -0 0 0 0 0 0 0 0 0 0 0 0 0 0 0 0 0
0 0 0 0 0 0 0 0 0 0 0 0 0 0 0 0 0 0 0 0 0 0 0 0 0 0 0 0 0 0 0 0 0 -0 0 0 -0 0 -0 0 0 0 0 0 0 0 0 0 0 0 0 0 0 0
0 0 0 0 0 0 0 0 0 0 0 0 0 -0 0 0 0 0 0 0 0 0 0 0 0 0 0 0 0 0 0 0 0 -0 -0 0 0 0 0 0 0 0 0 0 -0 -0 0 0 0 0 0 0 0 0
0 0 0 0 0 0 0 0 0 0 0 0 0 0 0 0 0 0 0 0 0 0 0 0 0 0 0 0 0 0 0 0 0 -0 0 0 0 0 0 0 0 0 0 0 -0 -0 0 0 0 0 0 0 0 0
0 0 0 0 0 0 0 0 0 0 0 0 0 0 0 0 0 0 0 0 0 0 0 0 0 0 0 0 0 0 0 0 0 0 0 0 0 0 -0 0 0 0 0 0 0 -0 -0 -0 0 0 0 0 0 0
0 0 0 0 0 0 0 0 0 0 0 0 0 0 0 0 0 0 0 0 0 0 0 0 0 0 0 0 0 0 0 0 0 0 0 -0 0 0 -0 -0 -0 -0 -0 0 0 0 -0 -0 -0 0 0 0 0 0
0 0 0 0 0 0 0 0 0 0 0 0 0 0 0 0 0 0 0 0 0 0 0 0 0 0 0 0 0 0 0 0 0 0 0 0 -0 -0 -0 -0 0 0 0 0 0 0 0 0 -0 0 0 0 0 0
0 0 0 0 0 0 0 0 0 -0 0 0 0 0 0 0 0 0 0 0 0 0 0 0 0 0 0 0 0 0 0 0 0 0 0 0 -0 0 -0 0 -0 -0 0 -0 0 0 0 0 0 -0 0 0 0 0
0 0 -0 0 0 0 -0 0 0 0 0 0 0 0 0 0 0 0 0 0 0 0 0 0 0 0 0 0 0 0 0 0 0 0 0 0 0 0 0 -0 0 -0 -0 0 -0 0 0 0 0 0 -0 0 0 0
-0 -0 -0 0 0 0 0 0 0 0 0 0 0 0 0 0 0 0 0 0 0 0 0 0 0 0 0 0 0 0 0 0 0 0 0 0 0 0 0 -0 0 0 -0 -0 0 0 0 0 0 0 0 -0 0 0
-0 -0 -0 0 0 0 0 0 0 0 0 0 0 0 0 0 0 0 0 0 0 0 0 0 0 0 0 0 0 0 0 0 0 0 0 0 0 0 0 0 -0 0 -0 -0 0 0 0 0 0 0 0 0 0 -0
0 -0 -0 0 0 0 0 0 0 0 0 0 0 0 0 0 0 0 0 0 0 0 0 0 0 0 0 0 0 0 0 0 0 0 0 0 0 0 0 -0 -0 -0 -0 -0 -0 -0 0 0 0 0 0 0 0 0
0 0 0 0 0 0 0 0 0 0 0 0 0 0 0 0 0 0 0 0 0 0 0 0 0 0 -0 0 0 0 0 -0 0 0 0 0 -0 0 0 0 0 -0 -0 -0 -0 -0 0 0 0 0 0 0 0 0
0 0 0 0 0 0 0 0 0 0 0 0 0 0 0 0 0 0 0 0 0 0 0 0 0 0 0 0 0 0 0 0 0 0 0 0 0 0 0 0 -0 -0 -0 -0 -0 -0 -0 -0 0 0 0 0 0 0
0 0 0 0 0 -0 0 0 0 0 0 0 0 0 0 0 0 0 0 0 0 0 0 0 0 0 0 0 0 0 0 0 0 0 -0 -0 0 -0 0 0 -0 -0 -0 -0 -0 -0 -0 -0 0 0 0 0 0 0
0 0 0 0 0 -0 0 0 0 0 0 0 0 0 0 0 0 0 0 0 0 0 0 0 0 0 0 0 0 0 0 0 0 0 0 -0 -0 -0 -0 -0 -0 -0 -0 -0 -0 -0 -0 -0 -0 -0 -0 -0 0 0
0 0 0 0 0 0 0 0 0 0 0 0 0 0 0 0 0 0 0 0 0 0 0 0 0 0 0 0 0 0 0 0 0 0 0 0 0 0 0 0 -0 -0 -0 -0 -0 -0 -0 -0 -0 -0 -0 -0 0 0
0 0 0 0 0 0 0 0 0 0 0 0 0 0 0 0 0 0 0 0 0 0 0 0 0 0 0 0 0 0 0 0 0 0 0 0 0 0 0 -0 -0 -0 -0 -0 -0 -0 -0 -0 -0 -0 -0 -0 -0 0
0 0 0 0 0 0 0 0 0 0 0 0 0 0 0 0 0 0 0 0 0 0 0 0 0 0 0 0 0 0 0 0 0 0 0 0 0 0 0 0 -0 -0 -0 -0 -0 -0 -0 -0 -0 -0 -0 -0 -0 -0
0 0 0 0 0 0 0 0 0 0 0 0 0 0 0 0 0 0 0 0 0 0 0 0 0 0 0 0 0 0 0 0 0 0 0 0 0 0 0 0 0 -0 -0 -0 -0 -0 -0 -0 -0 -0 -0 -0 -0 -0
0 0 0 0 0 0 0 0 0 0 0 0 0 0 0 0 0 0 0 0 0 0 0 0 0 0 0 0 0 0 0 0 0 0 0 0 0 0 0 0 0 0 -0 -0 -0 -0 -0 -0 -0 -0 -0 -0 -0 -0
0 0 0 0 0 0 0 0 0 0 0 0 0 0 0 0 0 0 0 0 0 0 0 0 0 0 0 0 0 0 0 0 0 0 0 0 0 0 0 0 0 0 0 0 -0 -0 -0 -0 -0 -0 -0 -0 -0 -0
0 0 0 0 0 0 0 0 0 0 0 0 0 0 0 0 0 0 0 0 0 0 0 0 0 0 0 0 0 0 0 0 0 0 0 0 0 0 0 0 0 0 0 0 0 0 -0 -0 -0 -0 -0 -0 -0 -0
0 0 0 0 0 0 0 0 0 0 0 0 0 0 0 0 0 0 0 0 0 0 0 0 0 0 0 0 0 0 0 0 0 0 0 0 0 0 0 0 0 0 0 0 0 0 -0 0 0 0 -0 -0 0 -0
0 0 0 0 0 0 0 0 0 0 0 0 0 0 0 0 0 0 0 0 0 0 0 0 0 0 0 0 0 0 0 0 0 0 0 0 0 0 0 0 0 0 0 0 0 0 0 0 0 0 0 0 0 0
0 0 0 0 0 0 0 0 0 0 0 0 0 0 0 0 0 0 0 0 0 0 0 0 0 0 0 0 0 0 0 0 0 0 0 0 0 0 0 0 0 0 0 0 0 0 0 0 0 0 0 0 0 0
0 0 0 0 0 0 0 0 0 0 0 0 0 0 0 0 0 0 0 0 0 0 0 0 0 0 0 0 0 0 0 0 0 0 0 0 0 0 0 0 0 0 0 0 0 0 0 0 0 0 0 0 0 0
0 0 0 0 0 0 0 0 0 0 0 0 0 0 0 0 0 0 0 0 0 0 0 0 0 0 0 0 0 0 0 0 0 0 0 0 0 0 0 0 0 0 0 0 0 0 0 0 0 0 0 0 0 0
0 0 0 0 0 0 0 0 0 0 0 0 0 0 0 0 0 0 0 0 0 0 0 0 0 0 0 0 0 0 0 0 0 0 0 0 0 0 0 0 0 0 0 0 0 0 0 0 0 0 0 0 0 0
0 0 0 0 0 0 0 0 0 0 0 0 0 0 0 0 0 0 0 0 0 0 0 0 0 0 0 0 0 0 0 0 0 0 0 0 0 0 0 0 0 0 0 0 0 0 0 0 0 0 0 0 0 0
Wind_Speed_500mb
52 56 60 63 62 61 60 54 51 55 63 65 63 48 30 21 16 21 26 26 24 17 48 37 28 25 24 19 7 16 14 5 5 11 6 6 5 1 2 2 2 3 3 1 5 3 5 40 12 14 11 25 32 40
52 55 58 61 63 62 61 55 50 59 63 64 61 47 30 22 13 21 28 18 18 28 48 64 62 52 51 36 31 7 6 6 4 4 4 7 3 8 5 2 6 4 4 4 9 4 17 30 6 9 24 35 38 44
52 53 56 59 63 64 63 58 48 61 65 61 57 40 30 25 18 18 24 23 23 26 45 18 6 17 20 28 20 12 8 4 2 5 6 4 3 3 4 2 4 1 2 0 8 12 26 47 15 30 41 49 55 55
56 54 55 58 61 64 65 62 50 59 64 60 51 35 30 25 23 23 18 14 13 15 10 16 31 46 21 21 21 31 37 15 10 22 4 3 5 3 3 2 3 2 6 5 3 13 33 16 34 50 60 54 60 57
57 56 56 57 61 64 66 66 56 58 62 61 48 31 27 26 23 25 24 15 13 11 9 28 40 26 30 18 31 16 29 45 21 5 3 4 1 7 4 3 2 9 7 1 2 7 17 34 50 62 55 57 61 58
58 57 56 59 61 65 68 70 64 57 62 59 50 30 25 25 25 27 9 6 16 15 11 7 17 20 30 40 39 22 24 16 11 5 8 7 7 8 1 2 19 39 11 6 7 17 31 65 55 43 51 65 56 53
58 61 57 60 64 66 69 73 64 58 63 56 50 35 25 20 22 14 10 26 28 13 9 10 12 13 32 29 14 13 8 6 7 4 5 4 7 2 2 3 25 40 41 30 17 23 26 39 38 62 66 54 51 46
60 63 61 58 65 67 67 70 59 65 64 56 45 32 17 14 18 5 8 20 17 11 8 5 8 14 15 13 8 17 7 1 3 5 5 2 8 6 3 12 26 30 38 33 24 26 36 52 60 52 61 49 53 49
60 58 56 58 60 67 64 67 58 68 66 51 39 21 11 4 6 6 30 8 4 7 5 3 6 7 13 9 12 14 11 5 12 3 5 11 6 6 12 26 34 31 24 34 42 42 38 37 47 49 54 51 53 54
59 55 51 54 60 68 63 64 57 68 65 42 21 7 5 4 25 15 1 4 6 5 7 7 9 6 5 7 5 10 10 5 4 5 17 3 1 6 18 26 24 23 22 20 32 32 45 46 46 51 52 54 51 48
60 54 53 54 57 63 64 56 56 68 61 40 18 8 19 20 6 3 5 1 1 5 10 12 12 7 5 2 3 6 3 5 4 3 5 1 2 8 28 28 30 24 22 25 31 40 40 42 49 50 50 53 50 44
59 58 56 51 54 60 62 47 57 60 55 48 34 36 17 5 4 2 2 5 3 6 7 6 9 6 4 2 3 2 2 4 2 11 4 4 6 32 40 37 38 37 27 28 32 38 47 46 49 52 52 52 53 51
58 57 53 48 51 57 51 52 55 56 53 30 7 7 5 3 7 6 4 7 3 6 10 11 10 4 1 4 4 5 7 3 10 7 2 6 26 49 50 47 46 39 37 43 42 42 46 55 52 53 56 55 53 54
57 58 58 49 49 46 55 55 56 53 24 6 5 11 7 6 8 8 9 8 11 15 31 32 6 1 3 6 2 4 4 6 7 8 6 6 37 51 45 51 48 40 39 41 51 51 45 47 53 52 50 52 54 59
54 56 56 47 40 43 53 54 50 40 10 9 6 8 11 18 12 12 17 15 20 26 20 5 1 1 4 5 2 3 9 4 7 8 6 33 53 32 32 39 43 44 42 45 47 49 56 52 61 60 51 47 50 55
51 52 44 36 43 50 56 55 41 9 8 11 15 6 12 4 11 13 16 23 23 10 5 3 3 4 1 6 5 5 5 7 7 8 37 42 35 28 23 27 31 40 45 50 54 56 63 58 51 49 40 42 46 44
45 48 40 48 47 47 55 46 12 13 12 11 16 29 26 15 22 22 21 26 19 8 3 5 2 11 4 4 3 9 9 8 28 36 39 34 31 34 26 26 39 51 55 50 53 47 56 64 60 51 47 42 39 41
44 42 40 43 46 46 43 10 10 11 15 25 12 28 31 31 35 39 35 30 18 8 10 9 10 4 7 7 7 8 26 29 32 38 38 32 33 34 24 27 35 36 45 42 51 51 55 57 56 62 63 63 43 41
46 44 36 28 25 25 11 8 11 11 22 23 33 38 33 28 36 40 42 43 34 22 7 11 6 6 7 13 16 19 22 25 31 32 37 29 27 30 31 31 31 35 42 46 50 56 52 59 48 56 61 75 66 47
40 39 31 17 15 6 10 13 10 14 12 10 21 24 22 25 34 37 38 39 33 13 10 8 10 17 24 33 25 23 21 22 23 25 29 20 22 28 29 30 34 38 40 46 50 51 52 52 58 59 59 65 72 68
36 28 22 18 9 18 14 12 14 15 17 14 17 14 15 21 27 32 36 31 23 13 6 27 37 44 43 34 30 26 26 26 21 21 26 22 22 31 28 28 32 36 39 43 51 54 54 52 53 62 56 63 52 77
37 32 25 22 13 12 19 24 19 13 14 17 20 20 13 11 20 38 34 23 16 35 38 37 44 43 48 43 37 30 25 24 24 25 19 20 22 21 22 28 37 40 40 40 45 48 51 49 47 46 60 72 90 68
34 31 16 18 16 14 16 21 14 12 7 8 7 6 7 7 9 7 9 13 18 35 40 40 34 25 28 31 32 27 23 27 24 16 19 16 16 20 19 23 29 38 40 37 37 42 44 47 51 47 41 54 67 86
32 12 11 14 24 10 10 10 14 10 9 4 3 8 7 10 8 7 8 16 43 44 37 31 38 38 34 33 35 29 20 20 20 17 9 13 15 15 20 21 25 28 29 31 31 33 37 44 46 42 36 28 38 56
10 15 13 14 16 10 9 6 7 1 9 9 5 8 7 5 2 5 8 14 36 45 39 33 31 32 34 40 32 24 18 13 10 10 7 7 10 14 17 18 18 21 26 28 32 32 30 38 39 29 29 30 29 25
15 18 22 17 8 10 8 6 9 10 5 7 10 8 4 1 3 10 6 11 15 24 12 15 25 34 40 33 34 32 20 14 11 10 10 9 12 14 18 23 21 14 16 22 28 30 31 30 34 29 22 26 24 23
12 13 16 20 11 8 8 10 8 3 6 10 5 2 1 6 9 7 13 25 31 27 27 22 18 27 34 34 29 29 19 16 15 12 9 13 17 20 23 24 23 15 11 15 20 26 32 32 27 28 26 21 22 24
23 11 12 15 17 20 5 4 7 10 8 11 6 7 8 9 6 6 10 25 26 23 8 13 15 24 28 24 20 21 24 23 18 12 9 9 15 16 17 20 18 14 5 12 19 27 31 32 26 21 20 19 18 17
16 21 28 9 14 15 22 15 10 19 14 20 9 8 8 10 8 16 29 35 32 26 15 19 27 28 29 23 19 28 29 22 19 18 17 17 18 16 17 16 12 7 11 16 20 27 32 31 27 20 16 14 14 14
17 35 18 16 12 14 27 33 23 30 30 39 38 26 27 37 41 37 43 39 43 35 29 20 24 25 23 29 31 36 34 29 28 23 17 13 10 8 7 6 8 13 14 21 30 31 29 28 26 19 14 10 9 9
15 37 17 23 22 49 50 48 42 43 49 44 43 42 47 37 36 31 21 18 25 35 24 33 39 30 29 27 34 32 26 22 19 16 13 12 13 15 18 18 17 20 24 25 20 19 22 25 26 22 14 10 6 4
26 29 17 10 9 34 37 34 31 30 39 35 38 36 26 18 12 10 15 26 26 17 26 34 32 28 27 24 24 16 9 7 11 15 16 16 13 11 11 8 8 8 10 11 11 12 15 21 23 21 15 8 9 13
36 34 32 15 7 10 22 19 8 9 14 15 19 25 26 25 7 3 8 7 8 15 18 18 17 18 22 20 14 14 21 28 23 17 17 14 11 8 8 7 6 7 6 8 8 14 19 19 15 12 11 4 12 15
Wind_Direction_500mb
340 344 348 349 348 349 348 348 345 347 345 344 343 343 341 343 328 293 294 294 256 267 282 269 274 257 281 280 298 317 338 351 342 15 329 335 274 83 331 59 36 116 314 164 183 221 131 354 5 63 278 299 313 324
337 340 343 346 347 348 347 345 343 347 346 345 344 341 343 337 319 288 292 296 270 259 270 295 290 280 271 275 264 280 269 259 261 311 328 292 11 4 331 158 7 88 42 325 8 28 328 339 336 352 339 309 325 326
335 337 339 343 345 347 346 344 339 346 347 347 346 341 347 344 327 282 285 284 285 287 300 282 295 330 303 287 269 223 243 225 235 327 313 304 338 244 358 34 313 114 237 198 329 332 317 308 300 348 341 336 339 347
331 334 335 339 341 344 346 343 337 344 346 345 347 342 342 342 332 325 290 296 269 294 296 296 321 329 330 323 295 254 249 270 294 319 284 296 286 92 228 343 318 214 212 214 259 306 326 63 333 333 330 341 341 352
328 330 332 335 340 341 342 342 335 339 344 342 340 338 332 331 331 325 304 293 281 275 284 295 329 359 8 349 342 322 291 256 268 291 266 256 307 322 286 127 241 200 204 36 63 297 286 288 319 324 330 332 342 342
328 327 329 331 334 339 340 339 337 334 341 339 333 320 314 313 322 338 322 297 327 259 291 308 330 294 325 328 330 312 326 276 217 204 269 284 213 198 10 315 20 10 347 242 236 306 290 297 307 327 326 328 338 336
323 328 326 329 332 334 339 338 336 334 339 335 330 317 298 288 300 318 305 304 313 277 296 303 304 290 332 331 329 13 336 308 237 230 235 266 279 218 331 10 337 342 342 348 334 307 311 304 313 317 320 326 330 331
314 320 326 325 328 329 334 338 333 335 338 334 326 318 305 271 282 290 265 312 308 259 276 283 277 314 339 309 7 351 334 32 194 310 300 300 335 16 42 336 337 324 318 319 325 310 285 295 306 314 320 328 331 334
308 313 321 326 329 328 328 334 328 335 339 334 327 313 296 243 304 268 310 312 245 252 272 287 294 297 325 307 15 357 354 9 2 4 14 355 350 44 332 329 328 324 310 302 314 309 306 305 305 303 308 320 328 330
307 308 316 326 329 330 329 328 324 333 340 339 333 312 259 281 313 308 258 203 203 227 227 248 240 262 274 292 41 6 14 12 355 8 331 35 90 308 284 287 293 307 315 308 303 308 322 318 317 316 308 309 314 319
302 306 315 320 326 326 327 327 328 334 345 351 331 282 304 311 275 229 204 146 281 273 219 248 254 275 315 358 344 41 355 337 325 337 336 6 311 274 311 306 329 335 320 303 306 310 318 317 302 296 303 301 302 304
296 301 308 316 322 322 322 325 329 334 337 322 300 292 301 284 257 107 290 318 209 242 262 233 315 279 320 349 122 8 56 1 331 327 324 38 289 319 319 332 346 351 333 320 314 306 312 310 310 306 293 290 289 289
292 299 304 313 317 322 317 319 326 327 329 322 287 278 268 253 27 168 214 299 293 252 264 312 326 314 334 24 36 62 57 263 334 36 360 236 295 333 344 350 351 2 358 347 332 325 317 313 308 302 302 287 281 282
294 294 298 306 316 315 321 319 323 322 327 280 253 295 177 245 241 189 190 205 254 246 287 310 266 20 21 59 349 0 252 63 44 27 270 264 321 336 350 357 357 354 358 351 352 340 324 317 314 307 300 293 280 275
295 298 302 307 304 313 320 321 322 312 233 239 213 243 228 237 240 227 246 267 279 295 289 284 177 202 17 81 63 51 16 341 188 219 238 296 326 339 352 7 5 359 0 5 359 351 348 337 329 316 303 289 279 270
299 305 310 315 310 312 318 319 323 264 229 231 230 249 235 278 265 240 238 269 313 285 278 196 111 60 316 139 65 198 116 226 253 226 275 302 328 337 330 348 347 351 351 353 356 1 357 346 343 335 317 298 275 263
297 297 312 311 310 317 316 311 274 221 233 227 244 228 233 253 246 246 266 282 298 275 227 121 85 218 107 52 285 187 203 221 253 285 304 313 319 328 321 333 347 346 348 351 351 352 358 357 358 355 354 337 310 275
288 302 308 317 316 329 322 262 232 240 244 239 231 244 231 240 249 255 261 276 274 228 181 211 138 126 195 188 261 234 235 267 279 294 306 320 324 331 326 336 346 353 2 1 5 356 352 352 353 354 352 357 328 298
291 297 305 315 321 340 300 260 238 261 247 255 259 258 252 261 262 261 260 268 271 252 227 178 152 197 226 215 228 251 269 274 287 304 309 312 329 351 347 341 347 354 359 3 2 2 359 2 357 2 360 4 356 325
287 290 298 273 284 299 274 267 245 263 265 255 261 263 254 253 268 269 265 257 255 208 185 197 211 230 233 252 252 264 275 285 285 303 314 326 329 331 339 350 356 0 0 1 5 9 13 15 22 13 11 12 10 3
291 293 287 277 249 217 252 269 249 250 274 260 278 270 261 254 259 260 259 251 205 213 227 225 243 263 270 260 257 251 260 275 268 293 297 302 319 318 325 342 351 357 3 5 3 7 14 17 13 19 27 15 17 15
279 285 284 273 222 220 251 237 234 290 276 266 284 264 239 240 243 248 255 208 225 244 245 252 260 270 267 262 245 243 255 263 266 285 283 290 309 312 320 338 343 354 1 3 2 1 7 6 11 14 21 26 34 30
277 284 261 215 216 230 254 227 225 218 237 266 294 270 254 248 240 243 228 232 241 247 247 247 255 263 287 268 230 229 238 250 256 279 262 288 308 314 311 331 339 344 349 359 4 359 358 0 5 7 15 22 33 34
261 230 224 220 205 254 249 233 216 239 237 261 233 265 253 234 266 243 246 249 269 264 249 256 274 276 264 226 214 221 235 240 251 248 246 272 291 323 326 333 332 339 343 351 357 4 356 359 6 9 16 26 37 49
208 224 205 223 218 225 228 245 227 157 241 205 215 268 271 259 230 259 238 262 264 264 265 270 262 270 234 214 208 210 203 193 227 225 254 277 304 315 316 320 327 332 344 352 1 6 5 352 6 15 9 25 43 54
216 216 192 200 215 206 218 234 216 219 201 213 231 251 268 87 293 256 249 290 311 313 272 272 269 226 210 210 201 186 193 226 232 270 303 318 319 316 316 315 312 318 343 3 4 3 10 8 4 16 19 27 42 49
223 240 218 217 223 233 268 254 257 258 231 217 238 293 107 222 247 254 305 349 319 300 289 281 251 213 204 186 196 197 218 219 228 263 266 289 302 307 311 309 303 311 346 7 7 8 9 9 11 10 16 25 39 39
215 205 199 204 208 215 239 217 217 217 224 219 172 193 211 211 237 318 355 355 349 339 260 181 181 196 206 198 202 222 217 216 222 224 244 272 291 294 302 314 311 309 344 24 9 5 6 5 6 16 21 30 49 55
202 203 200 217 213 224 212 205 219 223 215 182 186 213 239 243 243 294 280 286 316 326 304 212 190 192 190 203 231 229 220 220 236 235 245 255 249 255 286 307 319 331 0 11 353 357 1 5 9 13 23 34 46 66
226 198 191 205 203 220 228 222 240 254 251 239 245 255 262 268 277 285 294 276 257 288 296 260 277 266 250 245 232 215 215 222 231 239 252 249 241 247 284 299 282 305 313 327 333 336 347 356 357 4 10 26 39 44
195 191 213 229 242 248 251 259 262 263 261 258 257 259 265 272 273 289 283 268 248 260 265 236 225 234 244 240 227 223 222 224 228 237 244 238 249 260 261 264 272 286 296 307 321 331 338 346 347 350 354 0 19 68
195 191 199 215 251 258 245 244 247 245 248 247 252 252 241 213 229 236 240 247 252 255 240 241 248 240 229 229 220 214 217 251 257 252 262 269 273 281 279 272 255 272 284 297 307 327 342 341 340 344 355 20 91 104
215 219 218 239 258 238 244 226 218 259 208 205 224 220 206 193 155 56 356 332 262 251 233 206 188 177 172 174 203 236 263 261 243 249 263 271 267 260 259 261 253 240 257 274 322 346 345 340 344 352 3 18 118 115
Wind_Speed_850mb
52 56 60 63 62 61 60 54 51 55 63 65 63 48 30 21 16 21 26 26 24 17 48 37 28 25 24 19 7 16 14 5 5 11 6 6 5 1 2 2 2 3 3 1 5 3 5 40 12 14 11 25 32 40
52 55 58 61 63 62 61 55 50 59 63 64 61 47 30 22 13 21 28 18 18 28 48 64 62 52 51 36 31 7 6 6 4 4 4 7 3 8 5 2 6 4 4 4 9 4 17 30 6 9 24 35 38 44
52 53 56 59 63 64 63 58 48 61 65 61 57 40 30 25 18 18 24 23 23 26 45 18 6 17 20 28 20 12 8 4 2 5 6 4 3 3 4 2 4 1 2 0 8 12 26 47 15 30 41 49 55 55
56 54 55 58 61 64 65 62 50 59 64 60 51 35 30 25 23 23 18 14 13 15 10 16 31 46 21 21 21 31 37 15 10 22 4 3 5 3 3 2 3 2 6 5 3 13 33 16 34 50 60 54 60 57
57 56 56 57 61 64 66 66 56 58 62 61 48 31 27 26 23 25 24 15 13 11 9 28 40 26 30 18 31 16 29 45 21 5 3 4 1 7 4 3 2 9 7 1 2 7 17 34 50 62 55 57 61 58
58 57 56 59 61 65 68 70 64 57 62 59 50 30 25 25 25 27 9 6 16 15 11 7 17 20 30 40 39 22 24 16 11 5 8 7 7 8 1 2 19 39 11 6 7 17 31 65 55 43 51 65 56 53
58 61 57 60 64 66 69 73 64 58 63 56 50 35 25 20 22 14 10 26 28 13 9 10 12 13 32 29 14 13 8 6 7 4 5 4 7 2 2 3 25 40 41 30 17 23 26 39 38 62 66 54 51 46
60 63 61 58 65 67 67 70 59 65 64 56 45 32 17 14 18 5 8 20 17 11 8 5 8 14 15 13 8 17 7 1 3 5 5 2 8 6 3 12 26 30 38 33 24 26 36 52 60 52 61 49 53 49
60 58 56 58 60 67 64 67 58 68 66 51 39 21 11 4 6 6 30 8 4 7 5 3 6 7 13 9 12 14 11 5 12 3 5 11 6 6 12 26 34 31 24 34 42 42 38 37 47 49 54 51 53 54
59 55 51 54 60 68 63 64 57 68 65 42 21 7 5 4 25 15 1 4 6 5 7 7 9 6 5 7 5 10 10 5 4 5 17 3 1 6 18 26 24 23 22 20 32 32 45 46 46 51 52 54 51 48
60 54 53 54 57 63 64 56 56 68 61 40 18 8 19 20 6 3 5 1 1 5 10 12 12 7 5 2 3 6 3 5 4 3 5 1 2 8 28 28 30 24 22 25 31 40 40 42 49 50 50 53 50 44
59 58 56 51 54 60 62 47 57 60 55 48 34 36 17 5 4 2 2 5 3 6 7 6 9 6 4 2 3 2 2 4 2 11 4 4 6 32 40 37 38 37 27 28 32 38 47 46 49 52 52 52 53 51
58 57 53 48 51 57 51 52 55 56 53 30 7 7 5 3 7 6 4 7 3 6 10 11 10 4 1 4 4 5 7 3 10 7 2 6 26 49 50 47 46 39 37 43 42 42 46 55 52 53 56 55 53 54
57 58 58 49 49 46 55 55 56 53 24 6 5 11 7 6 8 8 9 8 11 15 31 32 6 1 3 6 2 4 4 6 7 8 6 6 37 51 45 51 48 40 39 41 51 51 45 47 53 52 50 52 54 59
54 56 56 47 40 43 53 54 50 40 10 9 6 8 11 18 12 12 17 15 20 26 20 5 1 1 4 5 2 3 9 4 7 8 6 33 53 32 32 39 43 44 42 45 47 49 56 52 61 60 51 47 50 55
51 52 44 36 43 50 56 55 41 9 8 11 15 6 12 4 11 13 16 23 23 10 5 3 3 4 1 6 5 5 5 7 7 8 37 42 35 28 23 27 31 40 45 50 54 56 63 58 51 49 40 42 46 44
45 48 40 48 47 47 55 46 12 13 12 11 16 29 26 15 22 22 21 26 19 8 3 5 2 11 4 4 3 9 9 8 28 36 39 34 31 34 26 26 39 51 55 50 53 47 56 64 60 51 47 42 39 41
44 42 40 43 46 46 43 10 10 11 15 25 12 28 31 31 35 39 35 30 18 8 10 9 10 4 7 7 7 8 26 29 32 38 38 32 33 34 24 27 35 36 45 42 51 51 55 57 56 62 63 63 43 41
46 44 36 28 25 25 11 8 11 11 22 23 33 38 33 28 36 40 42 43 34 22 7 11 6 6 7 13 16 19 22 25 31 32 37 29 27 30 31 31 31 35 42 46 50 56 52 59 48 56 61 75 66 47
40 39 31 17 15 6 10 13 10 14 12 10 21 24 22 25 34 37 38 39 33 13 10 8 10 17 24 33 25 23 21 22 23 25 29 20 22 28 29 30 34 38 40 46 50 51 52 52 58 59 59 65 72 68
36 28 22 18 9 18 14 12 14 15 17 14 17 14 15 21 27 32 36 31 23 13 6 27 37 44 43 34 30 26 26 26 21 21 26 22 22 31 28 28 32 36 39 43 51 54 54 52 53 62 56 63 52 77
37 32 25 22 13 12 19 24 19 13 14 17 20 20 13 11 20 38 34 23 16 35 38 37 44 43 48 43 37 30 25 24 24 25 19 20 22 21 22 28 37 40 40 40 45 48 51 49 47 46 60 72 90 68
34 31 16 18 16 14 16 21 14 12 7 8 7 6 7 7 9 7 9 13 18 35 40 40 34 25 28 31 32 27 23 27 24 16 19 16 16 20 19 23 29 38 40 37 37 42 44 47 51 47 41 54 67 86
32 12 11 14 24 10 10 10 14 10 9 4 3 8 7 10 8 7 8 16 43 44 37 31 38 38 34 33 35 29 20 20 20 17 9 13 15 15 20 21 25 28 29 31 31 33 37 44 46 42 36 28 38 56
10 15 13 14 16 10 9 6 7 1 9 9 5 8 7 5 2 5 8 14 36 45 39 33 31 32 34 40 32 24 18 13 10 10 7 7 10 14 17 18 18 21 26 28 32 32 30 38 39 29 29 30 29 25
15 18 22 17 8 10 8 6 9 10 5 7 10 8 4 1 3 10 6 11 15 24 12 15 25 34 40 33 34 32 20 14 11 10 10 9 12 14 18 23 21 14 16 22 28 30 31 30 34 29 22 26 24 23
12 13 16 20 11 8 8 10 8 3 6 10 5 2 1 6 9 7 13 25 31 27 27 22 18 27 34 34 29 29 19 16 15 12 9 13 17 20 23 24 23 15 11 15 20 26 32 32 27 28 26 21 22 24
23 11 12 15 17 20 5 4 7 10 8 11 6 7 8 9 6 6 10 25 26 23 8 13 15 24 28 24 20 21 24 23 18 12 9 9 15 16 17 20 18 14 5 12 19 27 31 32 26 21 20 19 18 17
16 21 28 9 14 15 22 15 10 19 14 20 9 8 8 10 8 16 29 35 32 26 15 19 27 28 29 23 19 28 29 22 19 18 17 17 18 16 17 16 12 7 11 16 20 27 32 31 27 20 16 14 14 14
17 35 18 16 12 14 27 33 23 30 30 39 38 26 27 37 41 37 43 39 43 35 29 20 24 25 23 29 31 36 34 29 28 23 17 13 10 8 7 6 8 13 14 21 30 31 29 28 26 19 14 10 9 9
15 37 17 23 22 49 50 48 42 43 49 44 43 42 47 37 36 31 21 18 25 35 24 33 39 30 29 27 34 32 26 22 19 16 13 12 13 15 18 18 17 20 24 25 20 19 22 25 26 22 14 10 6 4
26 29 17 10 9 34 37 34 31 30 39 35 38 36 26 18 12 10 15 26 26 17 26 34 32 28 27 24 24 16 9 7 11 15 16 16 13 11 11 8 8 8 10 11 11 12 15 21 23 21 15 8 9 13
36 34 32 15 7 10 22 19 8 9 14 15 19 25 26 25 7 3 8 7 8 15 18 18 17 18 22 20 14 14 21 28 23 17 17 14 11 8 8 7 6 7 6 8 8 14 19 19 15 12 11 4 12 15
Wind_Direction_850mb
340 344 348 349 348 349 348 348 345 347 345 344 343 343 341 343 328 293 294 294 256 267 282 269 274 257 281 280 298 317 338 351 342 15 329 335 274 83 331 59 36 116 314 164 183 221 131 354 5 63 278 299 313 324
337 340 343 346 347 348 347 345 343 347 346 345 344 341 343 337 319 288 292 296 270 259 270 295 290 280 271 275 264 280 269 259 261 311 328 292 11 4 331 158 7 88 42 325 8 28 328 339 336 352 339 309 325 326
335 337 339 343 345 347 346 344 339 346 347 347 346 341 347 344 327 282 285 284 285 287 300 282 295 330 303 287 269 223 243 225 235 327 313 304 338 244 358 34 313 114 237 198 329 332 317 308 300 348 341 336 339 347
331 334 335 339 341 344 346 343 337 344 346 345 347 342 342 342 332 325 290 296 269 294 296 296 321 329 330 323 295 254 249 270 294 319 284 296 286 92 228 343 318 214 212 214 259 306 326 63 333 333 330 341 341 352
328 330 332 335 340 341 342 342 335 339 344 342 340 338 332 331 331 325 304 293 281 275 284 295 329 359 8 349 342 322 291 256 268 291 266 256 307 322 286 127 241 200 204 36 63 297 286 288 319 324 330 332 342 342
328 327 329 331 334 339 340 339 337 334 341 339 333 320 314 313 322 338 322 297 327 259 291 308 330 294 325 328 330 312 326 276 217 204 269 284 213 198 10 315 20 10 347 242 236 306 290 297 307 327 326 328 338 336
323 328 326 329 332 334 339 338 336 334 339 335 330 317 298 288 300 318 305 304 313 277 296 303 304 290 332 331 329 13 336 308 237 230 235 266 279 218 331 10 337 342 342 348 334 307 311 304 313 317 320 326 330 331
314 320 326 325 328 329 334 338 333 335 338 334 326 318 305 271 282 290 265 312 308 259 276 283 277 314 339 309 7 351 334 32 194 310 300 300 335 16 42 336 337 324 318 319 325 310 285 295 306 314 320 328 331 334
308 313 321 326 329 328 328 334 328 335 339 334 327 313 296 243 304 268 310 312 245 252 272 287 294 297 325 307 15 357 354 9 2 4 14 355 350 44 332 329 328 324 310 302 314 309 306 305 305 303 308 320 328 330
307 308 316 326 329 330 329 328 324 333 340 339 333 312 259 281 313 308 258 203 203 227 227 248 240 262 274 292 41 6 14 12 355 8 331 35 90 308 284 287 293 307 315 308 303 308 322 318 317 316 308 309 314 319
302 306 315 320 326 326 327 327 328 334 345 351 331 282 304 311 275 229 204 146 281 273 219 248 254 275 315 358 344 41 355 337 325 337 336 6 311 274 311 306 329 335 320 303 306 310 318 317 302 296 303 301 302 304
296 301 308 316 322 322 322 325 329 334 337 322 300 292 301 284 257 107 290 318 209 242 262 233 315 279 320 349 122 8 56 1 331 327 324 38 289 319 319 332 346 351 333 320 314 306 312 310 310 306 293 290 289 289
292 299 304 313 317 322 317 319 326 327 329 322 287 278 268 253 27 168 214 299 293 252 264 312 326 314 334 24 36 62 57 263 334 36 360 236 295 333 344 350 351 2 358 347 332 325 317 313 308 302 302 287 281 282
294 294 298 306 316 315 321 319 323 322 327 280 253 295 177 245 241 189 190 205 254 246 287 310 266 20 21 59 349 0 252 63 44 27 270 264 321 336 350 357 357 354 358 351 352 340 324 317 314 307 300 293 280 275
295 298 302 307 304 313 320 321 322 312 233 239 213 243 228 237 240 227 246 267 279 295 289 284 177 202 17 81 63 51 16 341 188 219 238 296 326 339 352 7 5 359 0 5 359 351 348 337 329 316 303 289 279 270
299 305 310 315 310 312 318 319 323 264 229 231 230 249 235 278 265 240 238 269 313 285 278 196 111 60 316 139 65 198 116 226 253 226 275 302 328 337 330 348 347 351 351 353 356 1 357 346 343 335 317 298 275 263
297 297 312 311 310 317 316 311 274 221 233 227 244 228 233 253 246 246 266 282 298 275 227 121 85 218 107 52 285 187 203 221 253 285 304 313 319 328 321 333 347 346 348 351 351 352 358 357 358 355 354 337 310 275
288 302 308 317 316 329 322 262 232 240 244 239 231 244 231 240 249 255 261 276 274 228 181 211 138 126 195 188 261 234 235 267 279 294 306 320 324 331 326 336 346 353 2 1 5 356 352 352 353 354 352 357 328 298
291 297 305 315 321 340 300 260 238 261 247 255 259 258 252 261 262 261 260 268 271 252 227 178 152 197 226 215 228 251 269 274 287 304 309 312 329 351 347 341 347 354 359 3 2 2 359 2 357 2 360 4 356 325
287 290 298 273 284 299 274 267 245 263 265 255 261 263 254 253 268 269 265 257 255 208 185 197 211 230 233 252 252 264 275 285 285 303 314 326 329 331 339 350 356 0 0 1 5 9 13 15 22 13 11 12 10 3
291 293 287 277 249 217 252 269 249 250 274 260 278 270 261 254 259 260 259 251 205 213 227 225 243 263 270 260 257 251 260 275 268 293 297 302 319 318 325 342 351 357 3 5 3 7 14 17 13 19 27 15 17 15
279 285 284 273 222 220 251 237 234 290 276 266 284 264 239 240 243 248 255 208 225 244 245 252 260 270 267 262 245 243 255 263 266 285 283 290 309 312 320 338 343 354 1 3 2 1 7 6 11 14 21 26 34 30
277 284 261 215 216 230 254 227 225 218 237 266 294 270 254 248 240 243 228 232 241 247 247 247 255 263 287 268 230 229 238 250 256 279 262 288 308 314 311 331 339 344 349 359 4 359 358 0 5 7 15 22 33 34
261 230 224 220 205 254 249 233 216 239 237 261 233 265 253 234 266 243 246 249 269 264 249 256 274 276 264 226 214 221 235 240 251 248 246 272 291 323 326 333 332 339 343 351 357 4 356 359 6 9 16 26 37 49
208 224 205 223 218 225 228 245 227 157 241 205 215 268 271 259 230 259 238 262 264 264 265 270 262 270 234 214 208 210 203 193 227 225 254 277 304 315 316 320 327 332 344 352 1 6 5 352 6 15 9 25 43 54
216 216 192 200 215 206 218 234 216 219 201 213 231 251 268 87 293 256 249 290 311 313 272 272 269 226 210 210 201 186 193 226 232 270 303 318 319 316 316 315 312 318 343 3 4 3 10 8 4 16 19 27 42 49
223 240 218 217 223 233 268 254 257 258 231 217 238 293 107 222 247 254 305 349 319 300 289 281 251 213 204 186 196 197 218 219 228 263 266 289 302 307 311 309 303 311 346 7 7 8 9 9 11 10 16 25 39 39
215 205 199 204 208 215 239 217 217 217 224 219 172 193 211 211 237 318 355 355 349 339 260 181 181 196 206 198 202 222 217 216 222 224 244 272 291 294 302 314 311 309 344 24 9 5 6 5 6 16 21 30 49 55
202 203 200 217 213 224 212 205 219 223 215 182 186 213 239 243 243 294 280 286 316 326 304 212 190 192 190 203 231 229 220 220 236 235 245 255 249 255 286 307 319 331 0 11 353 357 1 5 9 13 23 34 46 66
226 198 191 205 203 220 228 222 240 254 251 239 245 255 262 268 277 285 294 276 257 288 296 260 277 266 250 245 232 215 215 222 231 239 252 249 241 247 284 299 282 305 313 327 333 336 347 356 357 4 10 26 39 44
195 191 213 229 242 248 251 259 262 263 261 258 257 259 265 272 273 289 283 268 248 260 265 236 225 234 244 240 227 223 222 224 228 237 244 238 249 260 261 264 272 286 296 307 321 331 338 346 347 350 354 0 19 68
195 191 199 215 251 258 245 244 247 245 248 247 252 252 241 213 229 236 240 247 252 255 240 241 248 240 229 229 220 214 217 251 257 252 262 269 273 281 279 272 255 272 284 297 307 327 342 341 340 344 355 20 91 104
215 219 218 239 258 238 244 226 218 259 208 205 224 220 206 193 155 56 356 332 262 251 233 206 188 177 172 174 203 236 263 261 243 249 263 271 267 260 259 261 253 240 257 274 322 346 345 340 344 352 3 18 118 115